Regional Weather Roundup
Issued by NWS

Home | Current Version | Previous Version | Graphics & Text | Print | Product List | Glossary On
Versions: 1 2 3 4 5 6 7 8 9 10 11 12 13 14 15 16 17 18 19 20 21 22 23 24 25 26 27 28 29 30 31 32 33 34 35 36 37 38 39 40 41 42 43 44 45 46 47 48 49 50
000
ASUS43 KTOP 251159
RWRKS

WEATHER ROUNDUP FOR KANSAS
NATIONAL WEATHER SERVICE GOODLAND KS
600 AM CST THU DEC 25 2014

NOTE:  "FAIR" INDICATES FEW OR NO CLOUDS BELOW 12,000 FEET WITH NO
SIGNIFICANT WEATHER AND/OR OBSTRUCTIONS TO VISIBILITY.

KSZ001>006-013>018-027>032-041>047-251300-
NORTHWEST KANSAS

CITY           SKY/WX    TMP DP  RH WIND       PRES   REMARKS
GOODLAND       MOCLDY    31  23  72 W6        29.38F
6HR MIN TEMP:  25; 6HR MAX TEMP:  37;

HAYS           CLOUDY    32  16  51 E3        29.51S
HILL CITY      CLOUDY    32  18  56 S7        29.48S
6HR MIN TEMP:  32; 6HR MAX TEMP:  35;

RUSSELL        MOCLDY    33  22  63 S16       29.51F WCI  23
6HR MIN TEMP:  32; 6HR MAX TEMP:  35;

$$

KSZ061>065-074>080-084>089-251300-
SOUTHWEST KANSAS

CITY           SKY/WX    TMP DP  RH WIND       PRES   REMARKS
DODGE CITY     MOCLDY    31  18  58 S21       29.50F WCI  18
6HR MIN TEMP:  30; 6HR MAX TEMP:  33;

ELKHART          N/A     37  20  50 SW12        N/A  WCI  29
GARDEN CITY    MOCLDY    25  19  78 S7        29.46F
6HR MIN TEMP:  25; 6HR MAX TEMP:  30;

GREAT BEND     PTCLDY    32  19  59 S15       29.56S WCI  22
LIBERAL        CLOUDY    34  18  51 S10       29.50F WCI  26
$$

KSZ066>073-081>083-090>101-251300-
SOUTHEAST KANSAS

CITY           SKY/WX    TMP DP  RH WIND       PRES   REMARKS
CHANUTE        CLEAR     34  28  79 S14       29.81S WCI  25
6HR MIN TEMP:  30; 6HR MAX TEMP:  34;

COFFEYVILLE    PTCLDY    33  28  81 S14       29.83S WCI  23
6HR MIN TEMP:  29; 6HR MAX TEMP:  33;

HUTCHINSON     MOCLDY    34  23  64 S15       29.65S WCI  24
6HR MIN TEMP:  32; 6HR MAX TEMP:  35;

NEWTON         MOCLDY    34  21  60 S14       29.68F WCI  24
PARSONS        PTCLDY    34  29  82 S9        29.84R
6HR MIN TEMP:  30; 6HR MAX TEMP:  34;

WICHITA INTL   PTCLDY    35  24  64 S18       29.68F WCI  24
6HR MIN TEMP:  31; 6HR MAX TEMP:  35;

WICHITA JABRA  PTCLDY    35  24  64 S16       29.69R WCI  25
6HR MIN TEMP:  32; 6HR MAX TEMP:  35;

WINFIELD       CLEAR     37  25  61 S18       29.74S WCI  27
6HR MIN TEMP:  31; 6HR MAX TEMP:  37;

$$

KSZ007>012-019>026-033>040-048>060-102>105-251300-
NORTHEAST KANSAS

CITY           SKY/WX    TMP DP  RH WIND       PRES   REMARKS
CONCORDIA      MOCLDY    34  23  64 S16       29.57F WCI  24
6HR MIN TEMP:  33; 6HR MAX TEMP:  35;

EMPORIA        MOCLDY    30  26  85 S18G26    29.72S WCI  18
6HR MIN TEMP:  27; 6HR MAX TEMP:  30;

LAWRENCE       CLEAR     31  27  85 S10       29.76F WCI  22
6HR MIN TEMP:  28; 6HR MAX TEMP:  31;

MANHATTAN      MOCLDY    36  24  62 S8        29.67F
6HR MIN TEMP:  27; 6HR MAX TEMP:  38;

OLATHE IND     PTCLDY    30  27  88 S12       29.79S WCI  20
6HR MIN TEMP:  29; 6HR MAX TEMP:  30;

OLATHE EXE     PTCLDY    30  27  88 S10       29.78F WCI  21
6HR MIN TEMP:  30; 6HR MAX TEMP:  32;

SALINA         MOCLDY    35  24  64 S17       29.61F WCI  25
6HR MIN TEMP:  34; 6HR MAX TEMP:  37;

TOPEKA BILLARD CLEAR     36  27  69 S12       29.74F WCI  28
6HR MIN TEMP:  32; 6HR MAX TEMP:  36;

TOPEKA FORBES  CLEAR     33  27  78 S12       29.73F WCI  24
6HR MIN TEMP:  31; 6HR MAX TEMP:  33;

$$


USA.gov is the U.S. government's official web portal to all federal, state and local government web resources and services.